sat.trackr.live / text

‹ back to catalog

TAIJING-1 03

NORAD 58821 · 2024-016B

PAYLOAD ACTIVE UNKNOWN

§ Identity

Operator
Country
PRC
Launch date
2024-01-23
Launch site
JSC
Launch vehicle
Mass (kg)
RCS (m²)

External: N2YO · Heavens-Above · Gunter

§ Orbital elements

Epoch: 2026-08-30T12:41:19.691232Z

Period
87.65 min
Inclination
97.4195°
Eccentricity
0.0014578
Mean motion
16.42832281 rev/d
Perigee alt
148.8 km
Apogee alt
167.8 km
Semi-major
6,536.4 km
B*
4.0457e-4
RAAN
346.4111°
Arg perigee
271.9897°
Mean anomaly
87.9734°
Rev number
14,597

§ Raw data

TAIJING-1 031 58821U 24016B   26242.52870013  .11186211  25770-5  40457-3 0  99992 58821  97.4195 346.4111 0014578 271.9897  87.9734 16.42832281145970

JSON: /api/v1/satellites/58821 · /tle

For live sub-satellite position, see the globe view (requires WebGL).

§ Visibility from observer

Set your observer location to see the next 7 days of passes ≥ 10°. The values pass through the URL so the page stays shareable.

No JS? Fill the form by hand. The geolocation button needs JavaScript.

§ Radio — SatNOGS DB

ModeDescriptionDownlinkUplink
FM Downlink 401.450 MHz

1 transmitter · refreshed weekly from db.satnogs.org